Location: ??
(35.4032°N, 139.3073°E)
Time: 02:47:15
(UTC+00:00)

Cosmos 923 Rocket - Pass Details

Date: 13 April 2024
Orbit: 755 x 784 km, 74.0° (Epoch: 25 May)

Event Time Altitude Azimuth Distance (km) Brightness Sun altitude
Exits shadow 18:20:54 47° 270° (W) 1,001 4.2 -21.9°
Maximum altitude 18:21:27 49° 291° (WNW) 976 4.2 -21.8°
Drops below altitude 10° 18:26:32 10° 6° (N) 2,311 6.9 -20.9°
Sets 18:29:00 0° 12° (NNE) 3,246 7.8 -20.4°
